Regional Weather Roundup
Issued by NWS Newport/Morehead, NC

Current Version | Previous Version | Graphics & Text | Print | Product List | Glossary On
Versions: 1 2 3 4 5 6 7 8 9 10 11 12 13 14 15 16 17 18 19 20 21 22 23 24 25 26 27 28 29 30 31 32 33 34 35 36 37 38 39 40 41 42 43 44 45 46 47 48 49 50
000 ASUS42 KMHX 300225 RWRMHX WEATHER ROUNDUP FOR EASTERN NORTH CAROLINA NATIONAL WEATHER SERVICE NEWPORT/MOREHEAD CITY NC 1000 PM EDT THU SEP 29 2016 NOTE: "FAIR" INDICATES FEW OR NO CLOUDS BELOW 12,000 FEET WITH NO SIGNIFICANT WEATHER AND/OR OBSTRUCTIONS TO VISIBILITY NCZ015>017-031-032-045>047-102-103-300300- NORTH COAST CITY SKY/WX TMP DP RH WIND PRES REMARKS EDENTON MOCLDY 74 74 100 NE3 30.06S ELIZABETH CITY CLOUDY 73 71 93 N5 30.06R KITTY HAWK CLOUDY 75 75 100 CALM 30.03S MANTEO CLOUDY 74 74 100 CALM 30.05R $$ NCZ045>047-081-094-103-104-300300- CENTRAL COAST CITY SKY/WX TMP DP RH WIND PRES REMARKS FRISCO CLOUDY 78 74 87 S9 30.04S $$ NCZ095-097-098-100-101-300300- SOUTHERN COAST CITY SKY/WX TMP DP RH WIND PRES REMARKS BEAUFORT PTCLDY 78 73 84 VRB5 30.04R CEDAR ISLAND NOT AVBL JACKSONVILLE PTCLDY 76 73 91 E6 30.03R PINEY ISLAND CLEAR N/A N/A N/A CALM 30.04R WILMINGTON CLEAR 77 72 84 SE5 30.01R $$ NCZ011>013-027>030-043-044-078>080-089-090>093-098-300300- COASTAL PLAIN CITY SKY/WX TMP DP RH WIND PRES REMARKS AHOSKIE MOCLDY 70 70 99 N3 30.07R CLINTON PTCLDY 73 73 100 CALM 30.03R ELIZABETHTOWN N/A 69 69 100 CALM 30.01S FOG GOLDSBORO CLEAR 72 72 100 E6 30.01R GREENVILLE PTCLDY 72 72 100 E3 30.06S HAVELOCK CLEAR 71 69 93 SW3 30.05R KENANSVILLE N/A 72 72 100 CALM 30.03S FOG KINSTON CLEAR 74 72 95 SE3 30.04S NEW BERN CLEAR 71 69 93 CALM 30.06R RICHLANDS PTCLDY 72 72 100 E5 30.04R ROCKY MOUNT MOCLDY 71 71 100 NE5 30.05R WASHINGTON CLEAR 70 69 98 CALM 30.05F WHITEVILLE FOG 71 70 97 CALM 30.00S VSB 1 $$ AMZ130-135-150-152-154-156-158-170-250-252-270-ANZ085-086-088-633-658-670-300300- MARINE OBSERVATIONS STATION/POSITION TIME TEMP WIND PRES WAVE SWELL AIR SEA DIR/SP/G HT/PER HT/PER (UTC) (F) (DEG/KT/KT) (MB) (FT/S) (FT/S) CHESAPEAKE LIGHT NOT AVBL 64 E VA BEACH 0150 76 74 150/ 8/ 8 1016.6 8/ 8 8/ 8 DUCK 0154 75 76 110/ 2/ 2 1016.8 2 E DUCK 0141 76 N/A 6/ 8 2/11 OREGON INLET 0154 76 78 130/ 3/ 4 1017.1 13E OREGON INLT 0200 77 N/A 6/ 8 7/ 8 HATTERAS CG 0154 78 80 160/ 9/ 11 1016.9 DIAMOND BUOY 0150 80 78 170/ 14/ 16 1016.8 3/10 3/10 CAPE LOOKOUT 0200 79 160/ 14/ 15 1016.9 BEAUFORT LAB 0154 80 77 170/ 8/ 12 1016.6 30 SE NEW RVR IN 0208 81 83 160/ 14/ 17 1017.0 30 SE NEW RVR IN 0155 83 N/A 3/10 27 SE WRIGHTSVLE 0208 81 81 160/ 10/ 14 1016.9 5 SE WRIGHTSVLE 0108 80 81 180/ 12/ 17 1017.1 225 S CAPE HAT 0150 81 83 210/ 12/ 16 1018.3 4/10 3/10 41 SE CHARLESTON 0150 81 82 190/ 12/ 16 1015.2 3/ 5 2/11 $$

USA.gov is the U.S. government's official web portal to all federal, state and local government web resources and services.